Location: Kopanina
(50.1306°N, 18.8294°E)
Time: 14:58:16
(UTC+00:00)

Daily predictions for brighter satellites

Satellite Brightness Start Highest point End
(mag) Time Altitude Azimuth Time Altitude Azimuth Time Altitude Azimuth
Cosmos 1953 4.2 15:50:43 10° NNW 15:54:21 34° W 15:57:58 10° SSW
SJ 16-02 3.3 15:53:20 10° ESE 15:54:48 12° E 15:56:18 10° ENE
CZ-4B R/B 3.1 15:53:22 10° NE 15:55:31 16° E 15:57:37 10° SE
Meteor 1-24 Rocket 3.9 15:51:27 10° SSE 15:56:29 44° E 16:01:30 10° NNE
Cosmos 2082 Rocket 4.1 15:54:54 10° N 15:56:43 11° NNE 15:58:32 10° NE
Cosmos 1908 4.5 15:53:05 10° NNW 15:56:49 46° W 16:00:32 10° SSW
SeaSat 1 3.3 15:53:27 10° NNE 15:58:12 47° NW 16:02:55 10° SW
Cosmos 1674 3.6 15:55:34 10° SSW 15:59:18 51° WNW 16:03:06 10° N
CZ-4C R/B 2.7 15:56:16 10° WSW 16:01:22 58° NW 16:07:36 10° NE
Cosmos 773 Rocket 3.9 15:57:13 10° NNW 16:02:24 75° ENE 16:07:32 10° SSE
Landsat 5 3.3 16:02:28 10° NNE 16:06:27 79° ESE 16:10:18 10° SSW
H-2A R/B 3.1 16:03:32 10° ESE 16:07:22 22° ENE 16:11:17 10° N
Cosmos 1939 Rocket 3.2 16:04:28 10° SE 16:08:24 43° ENE 16:12:16 10° N
Cosmos 2058 Rocket 3.7 16:04:34 10° N 16:08:43 35° ENE 16:12:52 10° SE
COSMOS 2455 3.5 16:03:58 10° S 16:09:22 36° ESE 16:14:48 10° NE
CZ-2C R/B 3.7 16:05:28 10° SE 16:10:23 38° ENE 16:15:32 10° N
Cosmos 2227 4.2 16:04:46 10° SSW 16:10:24 84° ESE 16:16:08 10° NNE
Cosmos 2227 Rocket 4.0 16:07:21 10° W 16:12:00 25° NW 16:16:41 10° NNE
Feng Yun 1-1 Rocket 4.4 16:09:09 10° SE 16:14:22 50° ENE 16:19:45 10° N
Cosmos 1315 Rocket 2.9 16:10:36 10° NNW 16:14:35 83° W 16:18:36 10° S
USA 234 3.7 16:08:41 10° ENE 16:14:56 49° N 16:21:11 10° WNW
MOS 1 Rocket 4.2 16:13:37 10° NE 16:17:06 23° E 16:20:32 10° SE
Cosmos 1844 Rocket 3.8 16:12:37 10° SSE 16:17:07 25° ESE 16:21:35 10° NE
NOSS 7 (E) 4.3 16:16:39 10° SW 16:20:15 81° NW 16:23:05 12° NE
Cosmos 1626 2.7 16:17:20 10° SSW 16:20:58 59° WNW 16:24:39 10° N
ATLAS 3B R/B 4.3 16:15:16 10° NW 16:21:40 41° WSW 16:28:19 10° S
Cosmos 1726 Rocket 3.5 16:17:27 10° N 16:21:50 69° E 16:26:12 10° SSE
CZ-4 R/B 2.3 16:19:17 10° ESE 16:22:44 27° ENE 16:26:09 10° N
CZ-4C R/B 3.5 16:22:31 10° N 16:25:36 52° WNW 16:28:41 10° SSW
Okean 1-7 Rocket 4.3 16:21:35 10° SSE 16:25:37 32° E 16:29:43 10° NNE
Meteor 2-10 Rocket 3.7 16:21:11 10° N 16:26:41 58° ENE 16:31:55 10° SSE
Cosmos 2344 4.4 16:21:03 10° NW 16:29:14 48° NNE 16:40:09 10° ESE
CZ-4B R/B 3.8 16:25:09 10° S 16:30:40 65° WSW 16:36:18 10° NNW
CREW DRAGON DEMO-1 DEB 2.6 16:28:53 10° WNW 16:31:47 84° N 16:33:49 18° ESE
X-37B 2.9 16:34:05 10° S 16:35:54 14° SSE 16:37:29 11° ESE
Cosmos 2297 Rocket 4.4 16:33:01 10° WNW 16:36:43 17° NNW 16:40:25 10° N
Cosmos 1538 Rocket 3.9 16:34:09 10° NNW 16:39:21 88° ENE 16:44:32 10° SSE
CZ-4 R/B 4.5 16:37:38 10° SSE 16:41:41 58° ENE 16:45:47 10° N
Cosmos 2279 Rocket 4.2 16:35:33 10° NNW 16:41:51 79° W 16:48:05 10° S
CSL-04 Rocket 4.4 16:37:26 10° ESE 16:42:08 31° ENE 16:46:55 10° N
COSMO-SKYMED 1 2.7 16:38:16 10° NNE 16:42:32 51° E 16:46:46 10° S
ATLAS 5 CENTAUR R/B 2.0 16:39:39 10° WSW 16:43:42 57° NW 16:47:39 14° NE
Cosmos 1777 Rocket 4.0 16:38:41 10° SSW 16:43:55 74° ESE 16:49:14 10° NNE
H-2A R/B 4.5 16:41:47 10° SSW 16:45:25 32° W 16:49:11 10° NNW
CZ-2D R/B 3.1 16:42:15 10° SSE 16:46:05 71° ENE 16:49:56 10° N
CSL-04 DEB 4.4 16:41:52 10° NNE 16:46:07 76° ESE 16:50:12 10° S
Lacrosse 5 1.9 16:44:23 10° WNW 16:49:28 85° SW 16:54:31 10° SE
Aureole 3 3.2 16:46:30 10° N 16:49:58 42° ENE 16:52:57 10° SSE
NOSS 3-1 (C) 4.1 16:50:13 10° NW 16:57:14 57° NE 17:04:28 14° ESE
Meteor 2-1 Rocket 4.1 16:51:53 10° N 16:57:28 67° ENE 17:02:57 10° SSE
ISS -2.6 16:55:43 10° SSW 16:58:42 29° SSE 16:59:25 26° ESE
Okean-O 2.6 16:55:55 10° SSE 17:00:16 58° ENE 17:04:38 10° N
Okean O Rocket 3.4 16:57:32 10° SSW 17:01:35 34° W 17:05:40 10° NNW
SKYMED 3 4.5 17:02:12 10° NNE 17:06:34 87° E 17:10:56 10° SSW
RESURS DK-1 4.4 17:03:13 10° W 17:06:35 23° NW 17:09:57 10° N
Cosmos 2263 Rocket 3.3 17:01:28 10° WSW 17:06:51 42° NW 17:12:15 10° NNE
Helios 1A Rocket 3.0 17:04:20 10° SSE 17:08:22 53° ENE 17:12:25 10° N
Cosmos 1455 2.0 17:05:08 10° N 17:08:58 80° E 17:12:48 10° SSE
Aureole 2 Rocket 1.9 17:07:18 10° SSW 17:10:19 78° ESE 17:10:57 52° NE
Cosmos 1602 Rocket 4.0 17:08:40 10° SSE 17:12:39 37° E 17:12:55 36° E
Cosmos 489 Rocket 4.5 17:06:28 10° NNW 17:12:52 88° WSW 17:19:13 10° SSE
H-2A R/B 3.6 17:09:00 10° N 17:13:05 36° WNW 17:17:06 10° SW
USA 229 DEB 4.0 17:07:44 10° NW 17:14:46 54° NE 17:19:08 25° ESE
USA 229 4.0 17:07:51 10° NW 17:14:51 54° NE 17:19:11 26° ESE
Cosmos 1689 Rocket 3.8 17:17:54 21° SSE 17:17:54 21° SSE 17:19:04 10° S
YAOGAN 1 2.4 17:12:03 10° SSE 17:16:22 78° ENE 17:20:43 10° NNW
Cosmos 990 Rocket 4.5 17:12:36 10° SSE 17:17:20 36° ESE 17:18:01 34° E
Cosmos 1892 Rocket 4.2 17:13:38 10° SSW 17:17:53 55° WNW 17:22:10 10° N
TELKOM 3 4.4 17:16:36 10° SW 17:18:14 32° SSW 17:18:14 32° SSW
ARGOS 3.1 17:13:49 10° SSE 17:19:04 58° ENE 17:24:22 10° N
USA 267 4.4 17:19:54 22° ESE 17:20:32 22° SE 17:25:23 10° S
COSMOS 2406 3.7 17:15:26 10° NNW 17:20:52 39° NE 17:22:13 34° E
ERS-2 1.9 17:20:31 33° NNE 17:22:03 81° ESE 17:25:41 10° SSW
Cosmos 1703 3.5 17:19:38 10° S 17:22:57 47° ESE 17:22:57 47° ESE
CZ-2C R/B 3.3 17:26:40 35° ESE 17:26:40 35° ESE 17:31:24 10° SSE
Cosmos 1092 Rocket 3.9 17:20:36 10° S 17:26:40 61° E 17:32:43 10° NNE
CZ-4B R/B 2.7 17:24:43 10° N 17:27:56 39° WNW 17:31:03 10° SW
Cosmos 1812 Rocket 3.4 17:24:17 10° N 17:28:41 63° ENE 17:33:01 10° SSE
NOSS 3-1 (A) 4.1 17:23:19 10° NW 17:30:22 58° NE 17:34:20 31° ESE
Ariane Rocket 4.5 17:32:39 21° NNE 17:32:39 21° NNE 17:34:52 10° N
SKYMED 2 4.2 17:26:19 10° N 17:30:35 56° WNW 17:34:50 10° SSW
BREEZE-M DEB (TANK) 3.0 17:28:56 10° W 17:30:28 41° W 17:30:28 41° W
CSL-04 Debris 4.0 17:26:42 10° SSE 17:32:04 75° ENE 17:37:28 10° NNW
SJ 16-02 1.2 17:28:15 10° SSW 17:32:39 89° WNW 17:34:30 35° NNE
ATLAS 2AS CENTAUR R/B 4.0 17:30:11 10° W 17:37:23 36° NNW 17:42:09 19° NNE
Cosmos 158 Rocket 4.5 17:33:20 10° NNW 17:38:36 63° WSW 17:43:55 10° S
Cosmos 1833 Rocket 3.0 17:33:20 10° NNW 17:38:43 44° NE 17:38:57 43° ENE
Cosmos 923 Rocket 4.4 17:35:38 10° NNW 17:40:57 66° WSW 17:46:12 10° S
Cosmos 1844 3.6 17:36:01 10° SSW 17:41:41 82° ESE 17:44:20 34° NNE
Cosmos 2082 Rocket 3.2 17:37:46 10° NNW 17:42:06 30° NNE 17:42:06 30° NNE
Nadezhda 4 Rocket 4.3 17:36:51 10° SSW 17:43:04 69° WNW 17:49:16 10° N
H-2A R/B 2.4 17:41:24 10° S 17:46:20 65° WSW 17:51:28 10° NNW
Cosmos 1680 Rocket 3.6 17:42:44 10° NNW 17:48:00 74° WSW 17:53:11 10° SSE
Cosmos 1898 Rocket 3.6 17:43:50 10° S 17:48:38 55° ESE 17:48:38 55° ESE
CZ-4C R/B 3.9 17:46:22 10° WNW 17:51:15 27° NNW 17:53:55 21° NNE
PSLV R/B 4.4 17:49:10 26° N 17:51:23 63° WNW 17:55:33 10° SSW
COSMOS 2455 3.4 17:49:13 10° SW 17:55:07 55° NW 17:58:25 26° NNE
MOS 1 Rocket 4.3 17:51:29 10° N 17:55:34 41° WNW 17:59:35 10° SW
USA 234 3.3 17:55:48 48° ENE 17:57:28 64° NNE 18:03:56 10° WNW
CZ-4 R/B 3.1 17:53:55 10° SSW 17:57:40 34° W 18:01:22 10° NNW
Cosmos 2098 Rocket 4.2 17:51:21 10° S 17:58:27 69° E 18:05:50 10° NNE
Cosmos 1844 Rocket 3.0 17:54:57 10° SW 18:00:34 64° WNW 18:03:17 31° NNE
Iridium 4 Rocket 3.8 17:56:54 10° N 18:02:38 75° W 18:07:54 10° S
Cosmos 1818 3.7 17:57:35 10° SW 18:03:00 70° NW 18:04:19 51° NNE
X-37B 3.5 18:09:05 10° SW 18:09:46 14° SW 18:09:46 14° SW
Cosmos 1417 Rocket 4.3 18:05:47 10° N 18:11:43 68° ENE 18:11:43 68° ENE
Cosmos 2278 Rocket 4.3 18:06:55 10° S 18:07:29 13° S 18:07:29 13° S
Cosmos 1553 Rocket 3.9 18:09:50 10° N 18:16:19 83° E 18:18:15 48° SSE
Meteor 2-19 Rocket 4.3 18:12:19 10° S 18:18:29 84° E 18:19:48 58° NNE
Cosmos 44 4.0 18:14:03 10° SW 18:17:27 47° SSW 18:17:27 47° SSW
Cosmos 2026 Rocket 4.0 18:13:45 10° SSW 18:19:52 75° W 18:26:07 10° N
CSL-04 Rocket 4.5 18:17:02 10° S 18:22:15 49° W 18:27:36 10° NNW
ATLAS 5 CENTAUR R/B 3.7 18:25:57 10° WNW 18:29:12 21° NNW 18:29:12 21° NNW
Lacrosse 5 4.0 18:28:05 10° WNW 18:31:51 21° SW 18:34:00 16° SSW
ISS -0.5 18:31:54 10° WSW 18:32:24 14° WSW 18:32:24 14° WSW
Cosmos 2344 4.4 18:35:26 10° NW 18:44:39 75° SW 18:51:01 34° SSE
USA 281 4.1 18:52:47 38° N 18:52:47 38° N 18:56:50 10° NNW
USA 267 4.3 19:07:16 35° SSW 19:07:16 35° SSW 19:10:54 10° SW
COSMOS 2406 4.3 18:59:47 10° NW 19:04:20 42° W 19:04:20 42° W
USA 229 DEB 4.4 18:58:49 10° NW 19:05:52 53° WSW 19:06:38 51° SW
USA 229 4.4 18:58:55 10° NW 19:05:58 54° WSW 19:06:40 52° SW
CZ-2C R/B 4.0 19:08:10 36° WSW 19:08:10 36° WSW 19:11:56 10° SW
SJ 16-02 4.2 19:09:23 10° W 19:11:32 15° NW 19:11:32 15° NW
Cosmos 1833 Rocket 4.4 19:17:27 10° NW 19:20:41 29° WNW 19:20:41 29° WNW
Cosmos 2082 Rocket 4.1 19:21:40 10° NW 19:23:58 25° NW 19:23:58 25° NW
ATLAS 2AS CENTAUR R/B 4.3 19:23:51 10° NW 19:29:35 29° N 19:29:35 29° N
USA 234 4.4 19:43:09 37° WNW 19:43:09 37° WNW 19:47:03 10° WNW
CZ-4C R/B 4.4 19:36:20 10° NW 19:39:06 22° NNW 19:39:06 22° NNW
